Flag for Latvia Weather past 2 weeks in Jelgava, Latvia

Now
39 °F

Passing clouds.


Feels Like: 34 °F
Forecast: 34 / 38 °F
Wind: 7 mph from North

Location: Riga Airport

Current Time: Dec 23, 2014 at 12:48:29 AM

Latest Report: Dec 23, 2014 at 12:20 AM


Visibility: N/A

Pressure: 29.18 "Hg

Humidity: 93%

Dew point: 37 °F

Location of JelgavaLocation

Historic Weather in Jelgava — Graph

°F

Jelgava temperature yesterday

Maximum temperature yesterday: 41 °F (at 7:20 PM)
Minimum temperature yesterday: 28 °F (at 12:50 AM)
Average temperature yesterday: 35 °F

Past Weeks' High & Low Weather Summary

 TemperatureHumidityPressure
High48 °F (Dec 19, 12:20 PM)100% (Dec 7, 11:20 PM)30.27 "Hg (Dec 7, 11:20 PM)
Low28 °F (Dec 8, 1:20 AM)70% (Dec 13, 10:50 AM)29.00 "Hg (Dec 13, 5:20 AM)
Average36 °F93%29.64 "Hg
* Reported Dec 7 11:20 PM — Dec 22 11:50 PM, Jelgava, Weather by CustomWeather, © 2014

Note: Actual official high and low records may vary slightly from our data, if they occured in-between our weather recording intervals... More about our weather records

Advertising

Jelgava weather history for previous 24 hours

 ConditionsComfort  
Time TempWeatherWind HumidityBarometerVisibility
11:50 PM
Dec 22
41 °FPassing clouds.8 mph87%29.18 "HgN/A
11:20 PM41 °FPartly cloudy.7 mph93%29.18 "HgN/A
10:50 PM39 °FPassing clouds.6 mph100%29.18 "HgN/A
10:20 PM39 °FPassing clouds.6 mph100%29.15 "HgN/A
9:50 PM39 °FPassing clouds.7 mph100%29.15 "HgN/A
9:20 PM39 °FPassing clouds.6 mph100%29.15 "HgN/A
8:50 PM39 °FPassing clouds.5 mph100%29.15 "HgN/A
8:20 PM39 °FPassing clouds.5 mph100%29.15 "HgN/A
7:50 PM41 °FLight rain. Passing clouds.5 mph100%29.15 "HgN/A
7:20 PM41 °FPartly cloudy.6 mph100%29.15 "HgN/A
6:50 PM39 °FMostly cloudy.6 mph100%29.15 "HgN/A
6:20 PM39 °FLight rain. Fog.3 mph100%29.15 "Hg3 mi
5:50 PM39 °FLight rain. Mostly cloudy.9 mph100%29.15 "Hg4 mi
5:20 PM37 °FFog.6 mph100%29.18 "Hg2 mi
4:50 PM36 °FFog.7 mph100%29.18 "Hg1 mi
4:20 PM36 °FFog.5 mph100%29.18 "Hg1 mi
3:50 PM36 °FFog.6 mph100%29.18 "Hg1 mi
3:20 PM36 °FFog.7 mph100%29.21 "Hg1 mi
2:50 PM36 °FFog.8 mph100%29.21 "Hg2 mi
2:20 PM36 °FLow clouds.8 mph100%29.21 "Hg2 mi
1:50 PM36 °FLight rain. Low clouds.8 mph100%29.21 "Hg6 mi
1:20 PM36 °FLight rain. Low clouds.9 mph100%29.24 "HgN/A
12:50 PM36 °FLight rain. Low clouds.8 mph100%29.24 "HgN/A
12:20 PM34 °FLight rain. Low clouds.8 mph100%29.27 "HgN/A
11:50 AM34 °FLight rain. Low clouds.7 mph100%29.27 "Hg6 mi
11:20 AM34 °FLight rain. Low clouds.9 mph100%29.30 "Hg4 mi
10:50 AM34 °FLight rain. Low clouds.8 mph100%29.30 "Hg5 mi
10:20 AM34 °FLight snow. Low clouds.7 mph100%29.33 "Hg4 mi
9:50 AM34 °FLight snow. Low clouds.8 mph100%29.33 "Hg5 mi
9:20 AM32 °FSnow. Low clouds.8 mph100%29.33 "Hg3 mi
8:50 AM32 °FSnow. Mostly cloudy.8 mph100%29.36 "Hg2 mi
8:20 AM32 °FSnow. Mostly cloudy.9 mph100%29.36 "Hg3 mi
7:20 AM32 °FLight snow. Mostly cloudy.8 mph100%29.42 "Hg4 mi
6:50 AM32 °FLight snow. Mostly cloudy.8 mph100%29.42 "Hg4 mi
6:20 AM32 °FLight snow. Partly cloudy.8 mph100%29.45 "Hg4 mi
5:20 AM32 °FPassing clouds.7 mph100%29.47 "HgN/A
4:50 AM32 °FPassing clouds.6 mph93%29.50 "HgN/A
4:20 AM32 °FPassing clouds.7 mph93%29.50 "HgN/A
3:50 AM30 °FClear.8 mph100%29.53 "Hg10 mi
3:20 AM30 °FPassing clouds.6 mph93%29.53 "HgN/A
2:20 AM28 °FPassing clouds.6 mph100%29.56 "HgN/A
1:50 AM28 °FPassing clouds.6 mph100%29.56 "HgN/A
1:20 AM28 °FClear.5 mph93%29.59 "Hg10 mi
12:50 AM28 °FPassing clouds.5 mph93%29.59 "HgN/A
12:20 AM30 °FPassing clouds.6 mph86%29.59 "HgN/A
Weather by CustomWeather, © 2014

See weather overviewHow to use our weather pages